ATLAS 5 CENTAUR R/B, 46919

Orbit data source: Space-Track

ATLAS 5 CENTAUR R/B, 46919 is space debris originally from a launch on Fri, 13 Nov 2020 UTC launched from the Air Force Eastern Test Range (AFETR). Debris objects in space refer to the collection of defunct objects orbiting the Earth. Examples of debris include non-operational satellites, rocket bodies, and fragments generated from explosions, collisions, or faulty payload assembly.

Loading next visibility...
Identifier
46919, 2020-083B
Orbit
Active
Country
Flag of USUS
Related business
Flag of USUnited Launch Alliance/Lockheed Martin (US)
Manufacturer
ULA Decatur
Mission
Spacecraft
Bus & Motor
CENTAUR SEC, RL10C-1
Mass
~2,020 kg wet, 2,020 kg dry
Launch date (UTC)
2020-11-13 (5 years ago)
Launch vehicle
Unknown
Launch site
Air Force Eastern Test Range (AFETR)
Object type
Payload
Rocket body
Debris
Shape & HBR
Cyl + 1 Nozzle, 5.8 m
Radar Cross Section
32.260 m²

Expand to show TLE details & history
Last TLE update: 2 days ago

TLE from 2 days ago
0 ATLAS 5 CENTAUR R/B
1 46919U 20083B   25287.11877132 -.00000055  00000-0  00000-0 0  9997
2 46919  58.9460   1.8849 0135820 207.6911 151.6314  3.86392645 35979
Epoch: 2025-10-14T02:51Z
TLE epoch observation values (Epoch: 2025-10-14T02:51:01.842Z)
Latitude
0.00003°
Longitude
-63.7807°
Altitude
10,983.051 km
Speed
4.763 km/s
True Right ascension
00h 07m 33s
True Declination
0° 00' 00"
Sunlit
Object was in full shadow at epoch
Visualization orbit readout
Latitude
Unknown
Longitude
Unknown
Altitude
Unknown
Speed
Unknown
Apparent Right ascension
Unknown
Apparent Declination
Unknown
Sunlit
N/A
Visualization observer readout
Local Sidereal Time
23:41:16
Azimuth
Unknown
Elevation
Unknown
Doppler factor
Unknown
Orbital elements
Apogee altitude
11,009.285 km
Perigee altitude
10,543.302 km
Semi-major axis
17,154.431 km
Eccentricity
0.01358
Inclination
58.946°
RAAN
1.8849°
Arg. of periapsis
207.6911°
True anomaly
152.35999°
Mean anomaly
151.6314°
Eccentric anomaly
151.99678°
Mean motion
0.966 °/min
Orbital period
372.67 mins
BSTAR
0
Loading maneuver chart data...
Computing Atmospheric mass density...
Loading historical data...
Loading historical data...
Loading historical data...
Loading historical data...
Loading historical data...
Loading historical data...
Loading historical data...
Other satellites on launch #83 in the year 2020 (2020-11-13 UTC)

Documentation

Showing up to 5 results
|